Location: Newark
(49.8348°N, 24.0280°E)
Time: 18:03:25
(UTC+00:00)

Transit 2A - Pass Details

Date: 24 January 2020
Orbit: 600 x 959 km, 66.7° (Epoch: 22 February)

Event Time Altitude Azimuth Distance (km) Brightness Sun altitude
Rises 00:15:00 0° 324° (NW) 2,887 - -53.7°
Reaches altitude 10° 00:18:37 10° 355° (N) 2,024 - -53.3°
Maximum altitude 00:20:30 12° 20° (NNE) 1,900 - -53.1°
Drops below altitude 10° 00:22:27 10° 44° (NE) 2,086 - -52.9°
Sets 00:26:19 0° 75° (ENE) 3,080 - -52.4°
